[Date Prev][Date Next][Thread Prev][Thread Next] - [Date Index][Thread Index][Author Index]

2 Line ISS Keps 7-8



ISS
1 25544U 98067A   01189.19170139  .00033958  00000-0  35592-3 0  1841
2 25544  51.5713 342.3926 0016193 257.7714 114.6266 15.63907393150363


----
Via the sarex mailing list at AMSAT.ORG courtesy of AMSAT-NA.
To unsubscribe, send "unsubscribe sarex" to Majordomo@amsat.org



AMSAT Top AMSAT Home